Simultaneous Nadir Overpasses (SNOs) Predictions

Prediction of SNOs between GOES-16 and TERRA Satellite Orbit:

Table of predicted SNOs for the next 14.0 days since TLE Epoch: 1/13/2024
Index Date Time (GOES-16) GOES-16 Lat,Lon TERRA Lat,Lon Distance(km) Time Diff (sec)
1 01/15/2024 02:41:29 0.00, -75.21 0.68, -71.86 380.41 80
2 01/15/2024 15:04:12 0.01, -75.24 0.32, -76.74 170.16 80
3 01/17/2024 14:44:39 0.00, -75.26 -0.54, -72.66 295.07 80
4 01/18/2024 03:07:31 -0.01, -75.24 -0.51, -77.57 264.76 80
5 01/20/2024 02:47:58 0.00, -75.27 0.37, -73.50 201.01 80
6 01/20/2024 15:10:40 0.00, -75.30 0.66, -78.37 349.32 80
7 01/22/2024 14:51:07 -0.01, -75.33 -0.25, -74.30 117.13 80
8 01/23/2024 03:13:58 0.01, -75.31 -0.78, -79.21 442.35 80
9 01/25/2024 02:54:24 0.02, -75.35 0.05, -75.13 25.17 80
